Time,TemperatureF,DewpointF,PressureIn,WindDirection,WindDirectionDegrees,WindSpeedMPH,WindSpeedGustMPH,Humidity,HourlyPrecipIn,Conditions,Clouds,dailyrainin,SoftwareType,DateUTC
2013-05-02 10:48:00,82.8,58.7,29.35,West,270,0.0,0.0,44,0.00,,---,0.00,VWS V14.01,2013-05-02 08:48:00,
2013-05-02 10:49:00,82.8,58.7,29.35,West,270,0.0,0.0,44,0.00,,---,0.00,VWS V14.01,2013-05-02 08:49:00,
2013-05-02 10:50:00,83.1,57.7,29.35,NW,315,2.2,2.2,42,0.00,,---,0.00,VWS V14.01,2013-05-02 08:50:00,
2013-05-02 10:55:00,84.4,58.8,29.35,NW,315,0.0,0.0,42,0.00,,---,0.00,VWS V14.01,2013-05-02 08:55:00,
2013-05-02 11:00:00,85.3,58.9,29.35,North,0,0.0,0.0,41,0.00,,---,0.00,VWS V14.01,2013-05-02 09:00:00,
2013-05-02 11:06:00,85.5,59.1,29.35,West,270,2.2,2.2,41,0.00,,---,0.00,VWS V14.01,2013-05-02 09:06:00,
2013-05-02 11:11:00,85.3,58.9,29.35,North,0,1.3,3.6,41,0.00,,---,0.00,VWS V14.01,2013-05-02 09:11:00,
2013-05-02 11:16:00,85.6,59.3,29.35,East,90,1.3,5.6,41,0.00,,---,0.00,VWS V14.01,2013-05-02 09:16:00,
2013-05-02 11:21:00,83.7,57.5,29.35,WSW,248,4.3,4.3,41,0.00,,---,0.00,VWS V14.01,2013-05-02 09:21:00,
2013-05-02 11:26:00,82.6,56.5,29.35,West,270,3.6,3.6,41,0.00,,---,0.00,VWS V14.01,2013-05-02 09:26:00,
2013-05-02 11:31:00,82.2,55.5,29.35,SSE,158,3.4,3.4,40,0.00,,---,0.00,VWS V14.01,2013-05-02 09:31:00,
2013-05-02 11:36:00,81.5,54.9,29.35,WSW,248,5.4,5.6,40,0.00,,---,0.00,VWS V14.01,2013-05-02 09:36:00,
2013-05-02 11:41:00,81.0,54.4,29.35,WSW,248,2.5,4.0,40,0.00,,---,0.00,VWS V14.01,2013-05-02 09:41:00,
2013-05-02 11:46:00,80.6,54.8,29.35,WSW,248,4.3,4.3,41,0.00,,---,0.00,VWS V14.01,2013-05-02 09:46:00,
2013-05-02 11:51:00,81.1,54.5,29.35,SW,225,4.9,4.9,40,0.00,,---,0.00,VWS V14.01,2013-05-02 09:51:00,
2013-05-02 11:56:00,81.3,54.7,29.35,West,270,3.1,3.1,40,0.00,,---,0.00,VWS V14.01,2013-05-02 09:56:00,
2013-05-02 12:01:00,81.3,54.0,29.35,WSW,248,5.4,5.4,39,0.00,,---,0.00,VWS V14.01,2013-05-02 10:01:00,
2013-05-02 12:07:00,81.3,54.7,29.35,SSE,158,3.1,5.8,40,0.00,,---,0.00,VWS V14.01,2013-05-02 10:07:00,
2013-05-02 12:12:00,81.9,54.5,29.35,SW,225,3.4,3.4,39,0.00,,---,0.00,VWS V14.01,2013-05-02 10:12:00,
2013-05-02 12:17:00,82.0,54.7,29.35,SSW,202,4.0,4.0,39,0.00,,---,0.00,VWS V14.01,2013-05-02 10:17:00,
2013-05-02 12:22:00,81.7,55.0,29.35,WSW,248,4.9,5.4,40,0.00,,---,0.00,VWS V14.01,2013-05-02 10:22:00,
2013-05-02 12:27:00,81.9,55.2,29.35,SW,225,2.5,2.9,40,0.00,,---,0.00,VWS V14.01,2013-05-02 10:27:00,
2013-05-02 12:32:00,82.8,55.3,29.35,West,270,4.3,4.3,39,0.00,,---,0.00,VWS V14.01,2013-05-02 10:32:00,
2013-05-02 12:37:00,82.4,55.0,29.35,West,270,2.7,6.0,39,0.00,,---,0.00,VWS V14.01,2013-05-02 10:37:00,
2013-05-02 12:42:00,83.5,55.9,29.35,SW,225,3.1,4.3,39,0.00,,---,0.00,VWS V14.01,2013-05-02 10:42:00,
2013-05-02 12:47:00,84.4,56.0,29.35,SW,225,1.3,2.9,38,0.00,,---,0.00,VWS V14.01,2013-05-02 10:47:00,
2013-05-02 12:52:00,85.1,56.7,29.35,East,90,1.3,2.0,38,0.00,,---,0.00,VWS V14.01,2013-05-02 10:52:00,
2013-05-02 12:57:00,85.3,54.6,29.35,NE,45,2.0,2.9,35,0.00,,---,0.00,VWS V14.01,2013-05-02 10:57:00,
2013-05-02 13:02:00,85.5,53.9,29.35,WSW,248,4.9,4.9,34,0.00,,---,0.00,VWS V14.01,2013-05-02 11:02:00,
2013-05-02 13:07:00,86.5,54.0,29.35,NE,45,1.6,1.6,33,0.00,,---,0.00,VWS V14.01,2013-05-02 11:07:00,
2013-05-02 13:13:00,87.1,55.3,29.35,SW,225,2.0,2.0,34,0.00,,---,0.00,VWS V14.01,2013-05-02 11:13:00,
2013-05-02 13:18:00,86.2,52.9,29.35,WSW,248,2.9,3.6,32,0.00,,---,0.00,VWS V14.01,2013-05-02 11:18:00,
2013-05-02 13:23:00,85.1,51.1,29.35,West,270,5.4,5.4,31,0.00,,---,0.00,VWS V14.01,2013-05-02 11:23:00,
2013-05-02 13:28:00,85.6,51.6,29.35,ESE,112,2.0,2.0,31,0.00,,---,0.00,VWS V14.01,2013-05-02 11:28:00,
2013-05-02 13:33:00,85.3,51.2,29.35,West,270,4.5,4.5,31,0.00,,---,0.00,VWS V14.01,2013-05-02 11:33:00,
2013-05-02 13:34:00,85.6,50.7,29.35,SE,135,3.1,4.5,30,0.00,,---,0.00,VWS V14.01,2013-05-02 11:34:00,
2013-05-02 14:22:00,85.6,50.7,29.35,ENE,68,1.3,3.1,30,0.00,,---,0.00,VWS V14.01,2013-05-02 12:22:00,
2013-05-02 14:27:00,87.4,52.2,29.35,ENE,68,1.3,4.0,30,0.00,,---,0.00,VWS V14.01,2013-05-02 12:27:00,
2013-05-02 14:32:00,87.1,51.9,29.35,WNW,292,2.2,2.2,30,0.00,,---,0.00,VWS V14.01,2013-05-02 12:32:00,
2013-05-02 14:37:00,85.6,51.6,29.35,West,270,4.9,5.6,31,0.00,,---,0.00,VWS V14.01,2013-05-02 12:37:00,
2013-05-02 14:42:00,85.6,51.6,29.35,West,270,5.6,5.6,31,0.00,,---,0.00,VWS V14.01,2013-05-02 12:42:00,
2013-05-02 14:47:00,85.5,51.4,29.35,South,180,2.7,2.7,31,0.00,,---,0.00,VWS V14.01,2013-05-02 12:47:00,
2013-05-02 14:52:00,85.1,51.1,29.35,SW,225,3.4,8.1,31,0.00,,---,0.00,VWS V14.01,2013-05-02 12:52:00,
2013-05-02 14:57:00,85.1,51.1,29.35,SW,225,2.5,4.7,31,0.00,,---,0.00,VWS V14.01,2013-05-02 12:57:00,
2013-05-02 15:02:00,84.9,50.9,29.35,West,270,5.8,5.8,31,0.00,,---,0.00,VWS V14.01,2013-05-02 13:02:00,
2013-05-02 15:07:00,85.5,51.4,29.35,West,270,2.5,6.0,31,0.00,,---,0.00,VWS V14.01,2013-05-02 13:07:00,
2013-05-02 15:12:00,85.1,51.1,29.32,SW,225,3.8,3.8,31,0.00,,---,0.00,VWS V14.01,2013-05-02 13:12:00,
2013-05-02 15:18:00,84.6,50.6,29.32,West,270,3.1,4.9,31,0.00,,---,0.00,VWS V14.01,2013-05-02 13:18:00,
2013-05-02 15:23:00,84.2,51.2,29.32,WSW,248,4.5,4.5,32,0.00,,---,0.00,VWS V14.01,2013-05-02 13:23:00,
2013-05-02 15:28:00,84.2,52.0,29.32,West,270,1.3,3.8,33,0.00,,---,0.00,VWS V14.01,2013-05-02 13:28:00,
2013-05-02 15:33:00,83.5,51.4,29.32,WSW,248,1.6,1.6,33,0.00,,---,0.00,VWS V14.01,2013-05-02 13:33:00,
2013-05-02 15:38:00,83.5,52.2,29.32,SW,225,5.8,5.8,34,0.00,,---,0.00,VWS V14.01,2013-05-02 13:38:00,
2013-05-02 15:43:00,82.2,51.9,29.32,South,180,4.0,5.4,35,0.00,,---,0.00,VWS V14.01,2013-05-02 13:43:00,
2013-05-02 15:48:00,82.6,52.2,29.32,West,270,5.6,5.6,35,0.00,,---,0.00,VWS V14.01,2013-05-02 13:48:00,
2013-05-02 15:53:00,82.8,53.1,29.32,SW,225,2.5,2.7,36,0.00,,---,0.00,VWS V14.01,2013-05-02 13:53:00,
2013-05-02 15:58:00,82.4,53.5,29.32,West,270,1.6,4.0,37,0.00,,---,0.00,VWS V14.01,2013-05-02 13:58:00,
2013-05-02 16:03:00,82.8,53.9,29.32,SW,225,5.6,5.6,37,0.00,,---,0.00,VWS V14.01,2013-05-02 14:03:00,
2013-05-02 16:08:00,83.5,55.2,29.32,SW,225,2.7,2.7,38,0.00,,---,0.00,VWS V14.01,2013-05-02 14:08:00,
2013-05-02 16:14:00,83.1,54.9,29.32,ESE,112,2.0,2.0,38,0.00,,---,0.00,VWS V14.01,2013-05-02 14:14:00,
2013-05-02 16:19:00,82.4,55.0,29.32,SW,225,4.9,4.9,39,0.00,,---,0.00,VWS V14.01,2013-05-02 14:19:00,
2013-05-02 16:24:00,82.2,55.5,29.32,SW,225,2.7,2.7,40,0.00,,---,0.00,VWS V14.01,2013-05-02 14:24:00,
2013-05-02 16:29:00,82.6,55.1,29.32,West,270,2.0,2.0,39,0.00,,---,0.00,VWS V14.01,2013-05-02 14:29:00,
2013-05-02 16:34:00,82.4,55.0,29.32,West,270,4.7,4.7,39,0.00,,---,0.00,VWS V14.01,2013-05-02 14:34:00,
2013-05-02 16:39:00,82.2,55.5,29.32,West,270,2.9,2.9,40,0.00,,---,0.00,VWS V14.01,2013-05-02 14:39:00,
2013-05-02 16:44:00,82.4,55.7,29.32,West,270,2.0,3.6,40,0.00,,---,0.00,VWS V14.01,2013-05-02 14:44:00,
2013-05-02 16:49:00,81.9,55.2,29.32,South,180,2.5,2.5,40,0.00,,---,0.00,VWS V14.01,2013-05-02 14:49:00,
2013-05-02 16:54:00,81.7,55.0,29.32,West,270,4.0,4.3,40,0.00,,---,0.00,VWS V14.01,2013-05-02 14:54:00,
2013-05-02 16:59:00,81.3,54.7,29.32,West,270,4.9,4.9,40,0.00,,---,0.00,VWS V14.01,2013-05-02 14:59:00,
2013-05-02 17:04:00,81.3,54.7,29.32,SSW,202,3.4,4.9,40,0.00,,---,0.00,VWS V14.01,2013-05-02 15:04:00,
2013-05-02 17:09:00,81.7,55.0,29.32,SE,135,1.3,2.9,40,0.00,,---,0.00,VWS V14.01,2013-05-02 15:09:00,
2013-05-02 17:15:00,82.0,55.4,29.32,WSW,248,1.6,2.9,40,0.00,,---,0.00,VWS V14.01,2013-05-02 15:15:00,
2013-05-02 17:20:00,81.7,55.0,29.32,SSW,202,2.7,3.4,40,0.00,,---,0.00,VWS V14.01,2013-05-02 15:20:00,
2013-05-02 17:25:00,81.7,55.0,29.32,SSE,158,2.9,2.9,40,0.00,,---,0.00,VWS V14.01,2013-05-02 15:25:00,
2013-05-02 17:30:00,81.0,54.4,29.32,West,270,3.4,3.6,40,0.00,,---,0.00,VWS V14.01,2013-05-02 15:30:00,
2013-05-02 17:35:00,80.6,54.1,29.32,SW,225,2.5,2.5,40,0.00,,---,0.00,VWS V14.01,2013-05-02 15:35:00,
2013-05-02 17:40:00,79.9,54.1,29.32,WSW,248,1.6,6.0,41,0.00,,---,0.00,VWS V14.01,2013-05-02 15:40:00,
2013-05-02 17:45:00,79.0,54.6,29.32,SW,225,2.9,3.4,43,0.00,,---,0.00,VWS V14.01,2013-05-02 15:45:00,
2013-05-02 17:50:00,77.9,55.5,29.32,South,180,2.9,2.9,46,0.00,,---,0.00,VWS V14.01,2013-05-02 15:50:00,
2013-05-02 17:55:00,77.4,56.2,29.32,West,270,2.5,3.6,48,0.00,,---,0.00,VWS V14.01,2013-05-02 15:55:00,
2013-05-02 18:00:00,77.0,56.4,29.32,SW,225,2.0,3.4,49,0.00,,---,0.00,VWS V14.01,2013-05-02 16:00:00,
2013-05-02 18:05:00,77.0,56.4,29.32,West,270,0.9,0.9,49,0.00,,---,0.00,VWS V14.01,2013-05-02 16:05:00,
2013-05-02 18:10:00,76.5,56.5,29.32,SE,135,2.0,2.2,50,0.00,,---,0.00,VWS V14.01,2013-05-02 16:10:00,
2013-05-02 18:16:00,76.5,56.5,29.32,West,270,6.5,6.5,50,0.00,,---,0.00,VWS V14.01,2013-05-02 16:16:00,
2013-05-02 18:21:00,76.3,56.8,29.32,West,270,3.1,3.1,51,0.00,,---,0.00,VWS V14.01,2013-05-02 16:21:00,
2013-05-02 18:26:00,76.1,55.6,29.32,WSW,248,3.1,4.9,49,0.00,,---,0.00,VWS V14.01,2013-05-02 16:26:00,
2013-05-02 18:31:00,75.7,55.2,29.32,West,270,2.9,2.9,49,0.00,,---,0.00,VWS V14.01,2013-05-02 16:31:00,
2013-05-02 18:36:00,75.0,55.1,29.32,WSW,248,4.0,4.0,50,0.00,,---,0.00,VWS V14.01,2013-05-02 16:36:00,
2013-05-02 18:41:00,74.5,55.7,29.32,SW,225,2.9,3.6,52,0.00,,---,0.00,VWS V14.01,2013-05-02 16:41:00,
2013-05-02 18:46:00,74.3,56.1,29.32,South,180,2.7,2.7,53,0.00,,---,0.00,VWS V14.01,2013-05-02 16:46:00,
2013-05-02 18:51:00,73.6,56.4,29.32,West,270,4.3,4.3,55,0.00,,---,0.00,VWS V14.01,2013-05-02 16:51:00,
2013-05-02 18:56:00,73.4,56.8,29.32,West,270,3.4,3.4,56,0.00,,---,0.00,VWS V14.01,2013-05-02 16:56:00,
2013-05-02 19:01:00,73.0,57.4,29.32,WSW,248,3.1,3.1,58,0.00,,---,0.00,VWS V14.01,2013-05-02 17:01:00,
2013-05-02 19:06:00,72.9,57.2,29.32,SW,225,2.9,2.9,58,0.00,,---,0.00,VWS V14.01,2013-05-02 17:06:00,
2013-05-02 19:11:00,72.5,57.4,29.32,West,270,2.9,2.9,59,0.00,,---,0.00,VWS V14.01,2013-05-02 17:11:00,
2013-05-02 19:17:00,72.1,58.0,29.32,WSW,248,2.7,4.0,61,0.00,,---,0.00,VWS V14.01,2013-05-02 17:17:00,
2013-05-02 19:22:00,71.8,58.1,29.32,WSW,248,2.2,3.4,62,0.00,,---,0.00,VWS V14.01,2013-05-02 17:22:00,
2013-05-02 19:27:00,71.8,57.6,29.32,West,270,1.6,1.6,61,0.00,,---,0.00,VWS V14.01,2013-05-02 17:27:00,
2013-05-02 19:32:00,71.4,56.4,29.32,West,270,1.1,2.0,59,0.00,,---,0.00,VWS V14.01,2013-05-02 17:32:00,
2013-05-02 19:37:00,71.2,55.7,29.32,West,270,1.1,2.5,58,0.00,,---,0.00,VWS V14.01,2013-05-02 17:37:00,
2013-05-02 19:42:00,70.9,54.9,29.32,WSW,248,0.0,1.1,57,0.00,,---,0.00,VWS V14.01,2013-05-02 17:42:00,
2013-05-02 19:47:00,70.7,54.7,29.32,ESE,112,0.0,0.0,57,0.00,,---,0.00,VWS V14.01,2013-05-02 17:47:00,
2013-05-02 19:52:00,70.3,54.9,29.32,South,180,0.0,0.0,58,0.00,,---,0.00,VWS V14.01,2013-05-02 17:52:00,
2013-05-02 19:58:00,70.0,54.1,29.32,SW,225,0.0,0.0,57,0.00,,---,0.00,VWS V14.01,2013-05-02 17:58:00,
2013-05-02 20:03:00,69.8,54.8,29.32,SE,135,0.0,0.0,59,0.00,,---,0.00,VWS V14.01,2013-05-02 18:03:00,
2013-05-02 20:08:00,69.6,55.1,29.32,West,270,1.3,1.3,60,0.00,,---,0.00,VWS V14.01,2013-05-02 18:08:00,
2013-05-02 20:13:00,69.3,55.7,29.32,NW,315,1.1,1.1,62,0.00,,---,0.00,VWS V14.01,2013-05-02 18:13:00,
2013-05-02 20:18:00,68.7,57.7,29.32,ESE,112,0.0,0.0,68,0.00,,---,0.00,VWS V14.01,2013-05-02 18:18:00,